Total_Precipitation_Accumulation
0.01 0.02 0.02 0.02 0.02 0.03 0.05 0.12 0.16 0.19 0.24 0.25 0.36 0.45 0.73 0.92 1.02 1.15 1.29 1.50 1.68 1.86 1.96 2.14 2.43 2.64 2.73 2.82 2.98 3.20 3.57 3.96 4.08 3.94 3.86 3.77 3.44 3.15 2.82 2.53 2.47 2.54 2.47 2.54
0.02 0.03 0.02 0.02 0.02 0.04 0.06 0.13 0.17 0.21 0.26 0.26 0.41 0.51 0.75 1.12 1.23 1.20 1.25 1.30 1.37 1.73 1.96 2.19 2.43 2.54 2.48 2.61 2.86 3.22 3.53 3.87 3.84 3.95 4.10 4.02 3.78 3.20 2.83 2.64 2.53 2.48 2.47 2.45
0.03 0.03 0.02 0.02 0.03 0.06 0.08 0.12 0.16 0.21 0.32 0.29 0.40 0.74 0.95 1.22 1.33 1.23 1.21 1.22 1.18 1.34 1.61 1.78 1.94 2.09 2.34 2.70 3.08 3.31 3.53 3.65 3.72 3.87 3.96 3.65 3.44 2.99 2.83 2.82 2.64 2.49 2.54 2.56
0.02 0.02 0.02 0.04 0.05 0.07 0.10 0.09 0.10 0.16 0.28 0.41 0.50 1.05 1.33 1.52 1.38 1.13 1.18 1.23 1.34 1.44 1.47 1.57 1.69 1.99 2.33 2.67 3.12 3.52 3.53 3.50 3.44 3.58 3.67 3.45 3.09 2.81 2.69 2.70 2.49 2.34 2.29 2.30
0.05 0.03 0.03 0.04 0.05 0.06 0.07 0.07 0.08 0.14 0.23 0.39 0.56 0.96 1.38 1.46 1.33 1.08 1.02 1.20 1.42 1.38 1.36 1.47 1.56 1.82 2.04 2.35 2.71 3.09 3.36 3.39 3.25 3.22 3.25 3.28 3.05 2.72 2.54 2.47 2.36 2.29 2.29 2.12
0.08 0.07 0.06 0.05 0.06 0.05 0.06 0.07 0.12 0.22 0.40 0.70 0.56 0.70 1.12 1.34 1.22 0.97 0.96 1.11 1.25 1.41 1.42 1.49 1.71 1.88 1.97 2.18 2.46 2.68 2.88 2.93 2.89 2.80 2.81 2.86 2.80 2.69 2.46 2.29 2.29 2.31 2.22 2.03
0.17 0.17 0.12 0.09 0.07 0.06 0.07 0.16 0.47 0.80 1.09 0.96 0.61 0.72 1.08 1.02 0.86 0.76 0.83 1.05 1.29 1.51 1.50 1.57 1.74 1.84 1.92 1.99 2.09 2.19 2.26 2.35 2.31 2.27 2.24 2.25 2.27 2.30 2.15 2.09 2.15 2.18 2.10 1.96
0.25 0.24 0.17 0.15 0.12 0.10 0.10 0.19 0.55 0.74 0.87 0.84 0.78 1.01 1.07 0.84 0.71 0.71 0.77 0.93 1.18 1.33 1.36 1.43 1.50 1.45 1.43 1.47 1.54 1.63 1.67 1.72 1.71 1.76 1.85 1.85 1.96 1.95 1.89 1.99 1.98 2.02 1.98 1.91
0.14 0.15 0.15 0.15 0.16 0.15 0.20 0.25 0.26 0.43 0.51 0.83 1.02 1.14 1.04 0.76 0.86 0.85 0.91 0.97 1.02 1.05 1.05 1.03 1.03 1.09 1.18 1.20 1.23 1.25 1.31 1.34 1.29 1.33 1.47 1.54 1.58 1.62 1.67 1.76 1.78 1.71 1.68 1.56
0.08 0.11 0.13 0.11 0.12 0.14 0.21 0.33 0.45 0.65 0.84 0.97 1.03 1.28 1.42 1.25 1.17 1.06 1.16 1.38 1.20 0.94 0.88 0.88 0.84 0.85 0.89 0.92 1.03 1.11 1.20 1.31 1.29 1.22 1.25 1.22 1.27 1.30 1.46 1.53 1.51 1.50 1.54 1.49
0.08 0.11 0.13 0.15 0.15 0.20 0.32 0.40 0.50 0.63 0.72 0.92 1.10 1.23 1.09 1.20 1.15 1.12 1.16 1.22 1.05 0.74 0.63 0.67 0.63 0.64 0.69 0.78 0.89 0.96 1.13 1.24 1.17 1.07 1.07 1.13 1.09 1.12 1.21 1.30 1.30 1.35 1.42 1.46
0.10 0.11 0.15 0.19 0.18 0.18 0.27 0.41 0.51 0.67 0.75 0.81 0.96 1.06 0.71 0.83 0.83 0.83 0.91 0.80 0.69 0.56 0.47 0.57 0.57 0.53 0.57 0.61 0.68 0.78 0.92 1.05 1.02 0.97 0.99 1.06 1.12 1.09 1.07 1.13 1.15 1.16 1.19 1.17
0.13 0.17 0.27 0.45 0.43 0.28 0.25 0.28 0.35 0.44 0.56 0.64 0.88 1.05 0.68 0.63 0.68 0.68 0.68 0.65 0.53 0.56 0.50 0.50 0.55 0.47 0.46 0.49 0.56 0.66 0.72 0.81 0.92 0.93 0.98 1.06 1.04 1.01 1.03 1.13 1.15 1.12 1.10 1.10
0.14 0.15 0.22 0.47 0.55 0.43 0.33 0.32 0.33 0.37 0.50 0.53 0.59 0.81 0.77 0.69 0.67 0.69 0.63 0.53 0.44 0.45 0.49 0.46 0.46 0.42 0.37 0.38 0.42 0.49 0.55 0.60 0.68 0.81 0.97 1.11 1.17 1.19 1.22 1.22 1.20 1.15 1.10 1.12
0.13 0.13 0.14 0.20 0.28 0.30 0.28 0.29 0.31 0.34 0.38 0.48 0.51 0.63 0.72 0.66 0.67 0.71 0.58 0.47 0.48 0.41 0.39 0.39 0.39 0.34 0.33 0.34 0.35 0.41 0.53 0.59 0.65 0.80 1.02 1.16 1.19 1.18 1.18 1.14 1.18 1.17 1.08 1.05
0.16 0.17 0.18 0.24 0.29 0.32 0.32 0.32 0.29 0.27 0.24 0.28 0.39 0.56 0.56 0.54 0.57 0.60 0.56 0.51 0.48 0.43 0.36 0.33 0.35 0.33 0.30 0.28 0.30 0.33 0.46 0.56 0.68 0.83 0.93 0.99 1.06 1.10 1.05 0.99 0.98 0.99 1.03 1.03
0.22 0.23 0.26 0.33 0.37 0.44 0.50 0.40 0.39 0.38 0.33 0.35 0.54 0.64 0.50 0.49 0.49 0.48 0.45 0.42 0.40 0.35 0.36 0.36 0.36 0.35 0.30 0.27 0.32 0.36 0.41 0.49 0.66 0.79 0.82 0.90 1.03 1.08 0.99 0.88 0.91 0.97 0.98 0.99
0.26 0.30 0.32 0.36 0.51 0.73 0.55 0.31 0.27 0.29 0.32 0.31 0.39 0.42 0.41 0.42 0.38 0.35 0.35 0.31 0.34 0.25 0.24 0.27 0.30 0.37 0.36 0.34 0.39 0.44 0.45 0.50 0.65 0.80 0.88 0.93 1.05 1.09 1.04 0.97 0.93 0.93 0.92 0.94
0.22 0.33 0.39 0.44 0.55 0.59 0.48 0.31 0.31 0.35 0.37 0.26 0.30 0.34 0.34 0.39 0.40 0.47 0.34 0.24 0.27 0.21 0.21 0.22 0.25 0.33 0.46 0.51 0.52 0.59 0.63 0.57 0.63 0.77 0.89 1.00 1.12 1.13 1.10 1.07 1.01 0.99 0.98 0.94
0.25 0.33 0.45 0.46 0.64 0.73 0.56 0.36 0.36 0.45 0.69 0.45 0.37 0.42 0.41 0.38 0.57 0.63 0.36 0.21 0.26 0.22 0.25 0.25 0.29 0.37 0.44 0.50 0.52 0.58 0.63 0.69 0.72 0.81 0.91 1.01 1.09 1.16 1.14 1.16 1.14 1.08 1.06 0.98
0.48 0.51 0.52 0.52 0.66 0.74 0.52 0.39 0.42 0.77 0.93 0.52 0.45 0.44 0.46 0.48 0.51 0.45 0.30 0.25 0.29 0.26 0.28 0.32 0.36 0.47 0.52 0.52 0.57 0.65 0.66 0.72 0.78 0.87 0.97 1.09 1.20 1.20 1.19 1.22 1.22 1.17 1.13 1.13
0.68 0.67 0.64 0.70 0.89 0.92 0.53 0.47 0.64 0.73 0.53 0.43 0.43 0.40 0.43 0.44 0.39 0.32 0.29 0.27 0.27 0.29 0.32 0.44 0.55 0.60 0.61 0.66 0.77 0.84 0.86 0.82 0.86 0.96 1.03 1.17 1.30 1.14 1.09 1.27 1.31 1.28 1.29 1.28
0.73 0.74 0.79 0.86 0.92 0.75 0.59 0.62 0.69 0.56 0.50 0.42 0.36 0.37 0.37 0.40 0.38 0.34 0.32 0.28 0.30 0.37 0.37 0.48 0.62 0.66 0.65 0.74 0.90 1.07 1.08 1.00 0.98 1.06 1.16 1.20 1.24 1.34 1.40 1.39 1.40 1.38 1.35 1.35
0.71 0.64 0.82 0.94 0.89 0.75 0.64 0.61 0.59 0.54 0.47 0.36 0.30 0.32 0.35 0.39 0.43 0.39 0.37 0.37 0.36 0.39 0.42 0.47 0.61 0.65 0.72 0.81 0.98 1.20 1.24 1.21 1.21 1.24 1.30 1.32 1.32 1.35 1.47 1.59 1.55 1.47 1.38 1.38
0.77 0.76 0.88 1.02 0.96 0.80 0.64 0.54 0.49 0.40 0.38 0.34 0.31 0.31 0.33 0.37 0.44 0.43 0.48 0.48 0.41 0.44 0.46 0.51 0.66 0.78 0.81 0.84 0.95 1.11 1.27 1.38 1.42 1.40 1.40 1.42 1.41 1.45 1.52 1.55 1.53 1.46 1.39 1.30
0.66 0.81 1.03 1.12 0.91 0.77 0.63 0.54 0.54 0.41 0.34 0.32 0.31 0.30 0.32 0.34 0.36 0.39 0.46 0.51 0.45 0.50 0.58 0.56 0.62 0.76 0.82 0.89 0.99 1.13 1.33 1.56 1.74 1.67 1.54 1.49 1.49 1.55 1.56 1.57 1.41 1.18 1.10 1.04